Suez Canal Bridge — HODM — position and weather

sailwx.info

Track history (hours):
 
Tides and Currents Weather Stations Pressure Air Temp Water Temp Dewpoint Dewpoint Depression Visibility Wind Speed Wind Dir Waves Ship Positions

Suez Canal Bridge

Last reported at 2014-Oct-22 00:33 UTC. Time now 2014-Oct-23 09:39 UTC.
Position N 39°33' W 027°38'.

Length 284.7 m; beam 40 m.

Type: Cargo ship. MMSI: 353704000.

Date/timePositionNaut miles runAvg speedWind from/ knotsBaromVisibWave heightAir tempDewpointWater temp
2014-Oct-22 00:33N 39°33' W 027°38'1313.3
2014-Oct-21 23:33N 39°34' W 027°55'1313.2
2014-Oct-21 22:33N 39°36' W 028°12'1313.1
2014-Oct-21 21:33N 39°38' W 028°29'1313.1
2014-Oct-21 20:33N 39°39' W 028°46'1313.1
2014-Oct-21 19:33N 39°40' W 029°03'1312.6
2014-Oct-21 18:33N 39°42' W 029°19'1312.7
2014-Oct-21 17:33N 39°43' W 029°36'1312.7
2014-Oct-21 16:32N 39°44' W 029°53'1312.9
2014-Oct-21 15:33N 39°45' W 030°09'  
2014-Oct-16 03:21N 33°53' W 075°19'30017.8
2014-Oct-15 10:33N 32°02' W 080°51'1010.3
2014-Oct-15 09:33N 32°05' W 081°03'5 5.1
2014-Oct-15 08:33N 32°08' W 081°08'0 0.1
2014-Oct-15 04:26N 32°08' W 081°08'0 0.0
2014-Oct-15 03:33N 32°08' W 081°08'0 0.0
2014-Oct-15 00:32N 32°08' W 081°08'0 0.0
2014-Oct-14 18:29N 32°08' W 081°08'0 0.0
2014-Oct-14 15:27N 32°08' W 081°08'1 0.7
2014-Oct-14 14:33N 32°07' W 081°08'6 6.0
2014-Oct-14 13:33N 32°05' W 081°02'383 9.3
2014-Oct-12 20:28N 36°46' W 075°45'1616.8
2014-Oct-12 19:32N 36°57' W 075°60'1515.0
2014-Oct-12 18:33N 36°60' W 076°18'8 0.6
2014-Oct-12 05:30N 36°52' W 076°21'0 0.0
2014-Oct-12 04:33N 36°52' W 076°21'0 0.0
2014-Oct-12 03:03N 36°52' W 076°21'2 2.7
2014-Oct-12 02:27N 36°54' W 076°20'8 8.6
2014-Oct-12 01:33N 37°01' W 076°15'1615.7
2014-Oct-12 00:33N 36°56' W 075°57'  
Track history (hours):
 
Tides and Currents Weather Stations Pressure Air Temp Water Temp Dewpoint Dewpoint Depression Visibility Wind Speed Wind Dir Waves Ship Positions

Suez Canal Bridge

Last reported at 2014-Oct-22 00:33 UTC. Time now 2014-Oct-23 09:39 UTC.
Position N 39°33' W 027°38'.

Length 284.7 m; beam 40 m.

Type: Cargo ship. MMSI: 353704000.

Date/timePositionNaut miles runAvg speedWind from/ knotsBaromVisibWave heightAir tempDewpointWater temp
2014-Oct-22 00:33N 39°33' W 027°38'1313.3
2014-Oct-21 23:33N 39°34' W 027°55'1313.2
2014-Oct-21 22:33N 39°36' W 028°12'1313.1
2014-Oct-21 21:33N 39°38' W 028°29'1313.1
2014-Oct-21 20:33N 39°39' W 028°46'1313.1
2014-Oct-21 19:33N 39°40' W 029°03'1312.6
2014-Oct-21 18:33N 39°42' W 029°19'1312.7
2014-Oct-21 17:33N 39°43' W 029°36'1312.7
2014-Oct-21 16:32N 39°44' W 029°53'1312.9
2014-Oct-21 15:33N 39°45' W 030°09'  
2014-Oct-16 03:21N 33°53' W 075°19'30017.8
2014-Oct-15 10:33N 32°02' W 080°51'1010.3
2014-Oct-15 09:33N 32°05' W 081°03'5 5.1
2014-Oct-15 08:33N 32°08' W 081°08'0 0.1
2014-Oct-15 04:26N 32°08' W 081°08'0 0.0
2014-Oct-15 03:33N 32°08' W 081°08'0 0.0
2014-Oct-15 00:32N 32°08' W 081°08'0 0.0
2014-Oct-14 18:29N 32°08' W 081°08'0 0.0
2014-Oct-14 15:27N 32°08' W 081°08'1 0.7
2014-Oct-14 14:33N 32°07' W 081°08'6 6.0
2014-Oct-14 13:33N 32°05' W 081°02'383 9.3
2014-Oct-12 20:28N 36°46' W 075°45'1616.8
2014-Oct-12 19:32N 36°57' W 075°60'1515.0
2014-Oct-12 18:33N 36°60' W 076°18'8 0.6
2014-Oct-12 05:30N 36°52' W 076°21'0 0.0
2014-Oct-12 04:33N 36°52' W 076°21'0 0.0
2014-Oct-12 03:03N 36°52' W 076°21'2 2.7
2014-Oct-12 02:27N 36°54' W 076°20'8 8.6
2014-Oct-12 01:33N 37°01' W 076°15'1615.7
2014-Oct-12 00:33N 36°56' W 075°57'  

Dump ship's entire track history